Location: The Saddle
(36.8333°N, 80.3417°W)
Time: 10:26:13
(UTC-05:00)

S-56A Canister/Altair - Pass Details

Date: 15 December 2023
Orbit: 640 x 2488 km, 38.9° (Epoch: 25 February)

Event Time Altitude Azimuth Distance (km) Brightness Sun altitude
Rises 13:01:36 0° 285° (WNW) 3,251 10.7 29.0°
Reaches altitude 10° 13:04:13 10° 282° (WNW) 2,182 10.0 28.8°
Maximum altitude 13:08:57 64° 201° (SSW) 711 8.5 28.6°
Drops below altitude 10° 13:13:23 10° 120° (ESE) 2,043 10.0 28.4°
Sets 13:15:46 0° 117° (ESE) 3,022 10.7 28.3°
